Retour au catalogue

STARLINK-30584

ActifCommunicationsVLEO
NORAD 58089·PAYLOAD·🇺🇸 United States

Lancé Oct 18, 2023 depuis Cape Canaveral Space Force Station

Loading…

Prochains Passages (prochaines 24 heures)

TLE

FraisSource: CelesTrak SupGP

Époque: Sep 15, 2026, 03:22 UTC

1 58089C 23160Q   26258.14076389 -.00013543  00000+0 -49048-3 0  2586
2 58089  42.9996  87.8495 0001494 268.4591   5.4897 15.27588509    19

Suivez STARLINK-30584 en temps réel avec AllMySat

Download on the App Store